{"data":{"norad_id":62100,"epoch":"2026-05-25T05:02:04.348320Z","epoch_age_seconds":67508,"freshness":"FRESH","line1":"1 62100U 24220N   26145.20977255  .00012885  00000+0  47679-3 0  9993","line2":"2 62100  42.9975 118.6888 0001091 272.8962  87.1765 15.27590271 85066","mean_motion":15.27590271,"eccentricity":0.0001091,"inclination_deg":42.9975,"raan_deg":118.6888,"arg_perigee_deg":272.8962,"mean_anomaly_deg":87.1765,"bstar":0.00047679,"rev_number":8506,"period_min":94.266114895936,"perigee_km":482.26978909528,"apogee_km":483.76689319072,"semimajor_km":6861.155341143,"source":"CELESTRAK","updated_at":"2026-05-25T13:38:19.559677Z"}}